sat.trackr.live / text

‹ back to catalog

NAVSTAR 55 (USA 178)

NORAD 28361 · 2004-023A

PAYLOAD ACTIVE UNKNOWN

§ Identity

Operator
Country
US
Launch date
2004-06-23
Launch site
AFETR
Launch vehicle
Mass (kg)
RCS (m²)
3.21

External: N2YO · Heavens-Above · Gunter

§ Orbital elements

Epoch: 2026-09-02T04:04:06.812256Z

Period
717.99 min
Inclination
54.9197°
Eccentricity
0.0158698
Mean motion
2.00560418 rev/d
Perigee alt
19,761.0 km
Apogee alt
20,604.0 km
Semi-major
26,560.6 km
B*
0.0000e+0
RAAN
83.6024°
Arg perigee
303.9254°
Mean anomaly
233.2729°
Rev number
16,258

§ Raw data

NAVSTAR 55 (USA 178)1 28361U 04023A   26245.16952329  .00000007  00000+0  00000+0 0  99902 28361  54.9197  83.6024 0158698 303.9254 233.2729  2.00560418162589

JSON: /api/v1/satellites/28361 · /tle

For live sub-satellite position, see the globe view (requires WebGL).

§ Visibility from observer

Set your observer location to see the next 7 days of passes ≥ 10°. The values pass through the URL so the page stays shareable.

No JS? Fill the form by hand. The geolocation button needs JavaScript.